COSMOS 2189

Satellite information

Favourite Embed

Satellite Type and Status

PAYLOADIN ORBIT

Key statistics

Satellite COSMOS 2189 at a glance.

Uptime

12088

Days in orbit

Revolutions

≈ 12.5

Per day

Orbit

LEO

Low Earth Orbit

Inclination

74.0

Latest

Satellite identification and parameters

Extended collection of information and parameters for COSMOS 2189.

Object identification

Identified? True

Debris? False

Object name: COSMOS 2189

International designator: 1992-030C

Object number (NORAD): 21978

Object ID (CCSDS): 21978

Country: COMMONWEALTH OF INDEPENDENT STATES (CIS)

Current information (Y/N): Y

RCS size: MEDIUM

Orbital parameters

Period: 114.831 minutes

Inclination: 74.0031 deg

SMA: 7825.854 km

Apoapsis: 1479.502 km

Periapsis: 1415.936 km

RAAN: 264.8189 deg

Eccentricy: 0.0040613

Argument of periapsis: 201.9517 deg

Mean anomaly: 272.4556 deg

Mean motion: 12.54021928 rev/day

Mean motion (dot): -0.00000009 rev/day2

B* drag term: 0.000044091 1/REarth

Two-line elements (TLE)

Creation date: July 8, 2025, 2:27 a.m.

Reference frame: TEME

Reference center: EARTH

Epoch: July 7, 2025, 4:21 p.m. UTC

TLE line 0: 0 COSMOS 2189

TLE line 1: 1 21978U 92030C 25188.68190752 -.00000009 00000-0 44091-4 0 9995

TLE line 2: 2 21978 74.0031 264.8189 0040613 201.9517 272.4556 12.54021928514950

Live tracking on map

Real-time ground track for satellite COSMOS 2189.

In-orbit conjunctions

There are no conjunctions computed for COSMOS 2189, at the moment. Check back to stay up to date, as we update our databases every day.

Go to all conjunctions

Associated space launch

Military communications satellites

COSMOS 2189 was lifted into orbit during the mission ‘Kosmos-3M | Strela-1M 361-368’, on board a Kosmos-3M space rocket.

The launch took place on June 3, 1992, 12:50 a.m. from 133/3 (133L).

For more information about the launch, click the button.

Launch to space Kosmos-3M | Strela-1M 361-368
Kosmos-3M | Strela-1M 361-368

Agency: N/A

Status: Launch Successful

Launch date: June 3, 1992, 12:50 a.m. UTC

Rocket: Kosmos-3M

Launch pad: 133/3 (133L)

Location: Plesetsk Cosmodrome, Russian Federation

...

Latest news about this satellite

There are no fresh news available about this satellite. Check back as we update our databases every day.


Newsletter sign-up

Weekly statistics, charts and insights to help you stay on top of the space industry.